Location: Newark
(45.0242°N, 16.0939°E)
Time: 15:22:03
(UTC+00:00)

Envisat - Visible Passes

Search period start: 18 September 2019 00:00
Search period end: 28 September 2019 00:00
Orbit: 764 x 766 km, 98.1° (Epoch: 18 September)

Date Brightness Start Highest point End Pass type
(mag) Time Alt. Az. Time Alt. Az. Time Alt. Az.
19 Sep 5.9 18:23:15 10° SW 18:26:33 17° W 18:29:53 10° NW visible
20 Sep 4.7 17:44:48 10° SSW 17:49:28 36° W 17:54:10 10° NNW visible
22 Sep 5.6 18:11:19 10° SW 18:15:11 22° W 18:19:04 10° NW visible
23 Sep 4.3 17:33:18 10° S 17:38:08 45° W 17:43:02 10° NNW visible
24 Sep 6.1 18:38:54 10° WSW 18:41:00 12° W 18:43:07 10° WNW visible
25 Sep 5.3 17:59:34 10° SSW 18:03:49 27° W 18:08:07 10° NW visible
26 Sep 3.8 17:21:52 10° S 17:26:51 57° W 17:31:52 10° NNW visible
27 Sep 5.9 18:26:34 10° SW 18:29:36 16° W 18:32:39 10° NW visible
